When you browse on this site, cookies collect data to enhance your experience and personalize the content and advertising you see.
Visit our Privacy Policy to learn more. By continuing to use the site, you agree to this use of cookies and data.
  • In Portugal
  • List of Countries
  • For 7 days
  • Water Temperature
  • Weather Map
  • Weather Widgets
  • user-avatar
    Login

    Hourly Weather Kabul

    Today, 18 October, Friday

    Time Temperature Precipitation Wind Pressure Humidity
    00:00 +14°C° 0 mm 1 mps 613 mmHg 50%
    01:00 +14°C° 0 mm 1 mps 612 mmHg 50%
    02:00 +13°C° 0 mm 1 mps 612 mmHg 50%
    03:00 +13°C° 0 mm 1 mps 612 mmHg 50%
    04:00 +13°C° 0 mm 1 mps 611 mmHg 51%
    05:00 +11°C° 0 mm 0 mps 611 mmHg 53%
    06:00 +13°C° 0 mm 1 mps 612 mmHg 50%
    07:00 +13°C° 0 mm 1 mps 613 mmHg 47%
    08:00 +14°C° 0 mm 1 mps 613 mmHg 44%
    09:00 +15°C° 0 mm 1 mps 613 mmHg 41%
    10:00 +15°C° 0 mm 2 mps 614 mmHg 38%
    11:00 +16°C° 0 mm 2 mps 614 mmHg 36%
    12:00 +16°C° 0.1 mm 2 mps 614 mmHg 35%
    13:00 +17°C° 0.1 mm 2 mps 614 mmHg 34%
    14:00 +17°C° 0.1 mm 2 mps 613 mmHg 34%
    15:00 +17°C° 0.1 mm 3 mps 613 mmHg 36%
    16:00 +16°C° 0.1 mm 3 mps 613 mmHg 39%
    17:00 +16°C° 0 mm 3 mps 613 mmHg 42%
    18:00 +15°C° 0 mm 2 mps 613 mmHg 44%
    19:00 +15°C° 0 mm 1 mps 613 mmHg 46%
    20:00 +15°C° 0 mm 1 mps 613 mmHg 48%
    21:00 +14°C° 0 mm 1 mps 613 mmHg 51%
    22:00 +13°C° 0 mm 1 mps 613 mmHg 54%
    23:00 +13°C° 0 mm 1 mps 612 mmHg 57%

    Tomorrow, 19 October, Saturday

    Time Temperature Precipitation Wind Pressure Humidity
    00:00 +11°C° 0 mm 0 mps 612 mmHg 58%
    01:00 +11°C° 0 mm 0 mps 612 mmHg 60%
    02:00 +11°C° 0 mm 0 mps 612 mmHg 62%
    03:00 +10°C° 0 mm 0 mps 611 mmHg 63%
    04:00 +10°C° 0 mm 0 mps 611 mmHg 64%
    05:00 +9°C° 0 mm 0 mps 611 mmHg 65%
    06:00 +10°C° 0 mm 0 mps 612 mmHg 61%
    07:00 +11°C° 0 mm 0 mps 612 mmHg 57%
    08:00 +12°C° 0 mm 0 mps 613 mmHg 53%
    09:00 +13°C° 0 mm 0 mps 613 mmHg 48%
    10:00 +14°C° 0 mm 0 mps 614 mmHg 43%
    11:00 +16°C° 0 mm 1 mps 614 mmHg 39%
    12:00 +18°C° 0 mm 1 mps 614 mmHg 35%
    13:00 +18°C° 0 mm 1 mps 613 mmHg 32%
    14:00 +19°C° 0 mm 1 mps 613 mmHg 29%
    15:00 +19°C° 0 mm 1 mps 613 mmHg 28%
    16:00 +18°C° 0 mm 2 mps 613 mmHg 28%
    17:00 +18°C° 0 mm 2 mps 612 mmHg 28%
    18:00 +18°C° 0 mm 1 mps 613 mmHg 31%
    19:00 +16°C° 0 mm 1 mps 613 mmHg 35%
    20:00 +16°C° 0 mm 1 mps 613 mmHg 38%
    21:00 +15°C° 0 mm 1 mps 613 mmHg 40%
    22:00 +13°C° 0 mm 0 mps 613 mmHg 42%
    23:00 +13°C° 0 mm 0 mps 612 mmHg 44%

    Day after tomorrow, 20 October, Sunday

    Time Temperature Precipitation Wind Pressure Humidity
    00:00 +12°C° 0 mm 0 mps 612 mmHg 44%
    01:00 +12°C° 0 mm 0 mps 612 mmHg 45%
    02:00 +11°C° 0 mm 0 mps 611 mmHg 46%
    03:00 +11°C° 0 mm 0 mps 611 mmHg 47%
    04:00 +11°C° 0 mm 0 mps 611 mmHg 48%
    05:00 +10°C° 0 mm 0 mps 611 mmHg 48%
    06:00 +11°C° 0 mm 0 mps 612 mmHg 45%
    07:00 +12°C° 0 mm 0 mps 612 mmHg 42%
    08:00 +13°C° 0 mm 0 mps 613 mmHg 38%
    09:00 +14°C° 0 mm 0 mps 613 mmHg 35%
    10:00 +15°C° 0 mm 0 mps 613 mmHg 32%
    11:00 +18°C° 0 mm 1 mps 613 mmHg 28%
    12:00 +19°C° 0 mm 1 mps 613 mmHg 27%
    13:00 +20°C° 0 mm 1 mps 613 mmHg 25%
    14:00 +20°C° 0 mm 1 mps 613 mmHg 23%
    15:00 +20°C° 0 mm 1 mps 613 mmHg 24%
    16:00 +19°C° 0 mm 2 mps 613 mmHg 24%
    17:00 +19°C° 0 mm 2 mps 612 mmHg 24%
    18:00 +18°C° 0 mm 2 mps 613 mmHg 27%
    19:00 +18°C° 0 mm 1 mps 613 mmHg 30%
    20:00 +18°C° 0 mm 1 mps 613 mmHg 34%
    21:00 +16°C° 0 mm 1 mps 612 mmHg 36%
    22:00 +14°C° 0 mm 0 mps 612 mmHg 39%
    23:00 +13°C° 0 mm 0 mps 612 mmHg 42%

    21 October, Monday

    Time Temperature Precipitation Wind Pressure Humidity
    00:00 +13°C° 0 mm 0 mps 611 mmHg 43%
    01:00 +12°C° 0 mm 0 mps 611 mmHg 44%
    02:00 +12°C° 0 mm 0 mps 611 mmHg 44%
    03:00 +11°C° 0 mm 0 mps 611 mmHg 45%
    04:00 +11°C° 0 mm 0 mps 610 mmHg 45%
    05:00 +10°C° 0 mm 0 mps 610 mmHg 46%
    06:00 +12°C° 0 mm 0 mps 611 mmHg 43%
    07:00 +13°C° 0 mm 0 mps 611 mmHg 39%
    08:00 +15°C° 0 mm 1 mps 612 mmHg 36%
    09:00 +16°C° 0 mm 1 mps 612 mmHg 33%
    10:00 +18°C° 0 mm 1 mps 613 mmHg 29%
    11:00 +19°C° 0 mm 1 mps 613 mmHg 26%
    12:00 +20°C° 0 mm 1 mps 612 mmHg 24%
    13:00 +20°C° 0 mm 1 mps 612 mmHg 22%
    14:00 +21°C° 0 mm 1 mps 612 mmHg 20%
    15:00 +21°C° 0 mm 1 mps 612 mmHg 20%
    16:00 +20°C° 0 mm 2 mps 612 mmHg 20%
    17:00 +19°C° 0 mm 2 mps 611 mmHg 21%
    18:00 +18°C° 0 mm 2 mps 611 mmHg 24%
    19:00 +17°C° 0 mm 2 mps 611 mmHg 28%
    20:00 +16°C° 0 mm 2 mps 611 mmHg 31%
    21:00 +15°C° 0 mm 1 mps 611 mmHg 33%
    22:00 +14°C° 0 mm 1 mps 611 mmHg 34%
    23:00 +14°C° 0 mm 1 mps 610 mmHg 36%

    22 October, Tuesday

    Time Temperature Precipitation Wind Pressure Humidity
    00:00 +13°C° 0 mm 1 mps 610 mmHg 37%
    01:00 +12°C° 0 mm 0 mps 610 mmHg 38%
    02:00 +11°C° 0 mm 0 mps 609 mmHg 39%
    03:00 +11°C° 0 mm 0 mps 609 mmHg 40%
    04:00 +10°C° 0 mm 0 mps 609 mmHg 40%
    05:00 +10°C° 0 mm 0 mps 608 mmHg 41%
    06:00 +11°C° 0 mm 0 mps 609 mmHg 38%
    07:00 +12°C° 0 mm 0 mps 610 mmHg 35%
    08:00 +13°C° 0 mm 0 mps 610 mmHg 33%
    09:00 +14°C° 0 mm 0 mps 611 mmHg 31%
    10:00 +16°C° 0 mm 1 mps 611 mmHg 29%
    11:00 +16°C° 0 mm 1 mps 611 mmHg 27%
    12:00 +18°C° 0 mm 1 mps 611 mmHg 26%
    13:00 +18°C° 0 mm 1 mps 610 mmHg 26%
    14:00 +19°C° 0 mm 1 mps 610 mmHg 26%
    15:00 +18°C° 0 mm 2 mps 610 mmHg 26%
    16:00 +18°C° 0 mm 2 mps 610 mmHg 27%
    17:00 +18°C° 0 mm 2 mps 610 mmHg 27%
    18:00 +16°C° 0.1 mm 2 mps 610 mmHg 31%
    19:00 +15°C° 0.1 mm 2 mps 610 mmHg 34%
    20:00 +13°C° 0.1 mm 3 mps 610 mmHg 38%
    21:00 +13°C° 0 mm 2 mps 610 mmHg 39%
    22:00 +12°C° 0 mm 2 mps 609 mmHg 40%
    23:00 +10°C° 0 mm 2 mps 609 mmHg 42%

    23 October, Wednesday

    Time Temperature Precipitation Wind Pressure Humidity
    00:00 +11°C° 0 mm 1 mps 609 mmHg 43%
    01:00 +10°C° 0 mm 1 mps 608 mmHg 45%
    02:00 +10°C° 0 mm 1 mps 608 mmHg 46%
    03:00 +10°C° 0 mm 1 mps 608 mmHg 48%
    04:00 +9°C° 0 mm 1 mps 608 mmHg 49%
    05:00 +8°C° 0 mm 0 mps 608 mmHg 50%
    06:00 +8°C° 0 mm 0 mps 608 mmHg 47%
    07:00 +9°C° 0 mm 0 mps 609 mmHg 44%
    08:00 +10°C° 0 mm 0 mps 609 mmHg 41%
    09:00 +12°C° 0 mm 1 mps 609 mmHg 38%
    10:00 +13°C° 0 mm 1 mps 609 mmHg 35%
    11:00 +14°C° 0 mm 1 mps 610 mmHg 32%
    12:00 +15°C° 0 mm 1 mps 609 mmHg 29%
    13:00 +15°C° 0 mm 1 mps 609 mmHg 27%
    14:00 +16°C° 0 mm 1 mps 609 mmHg 25%
    15:00 +16°C° 0 mm 1 mps 609 mmHg 24%
    16:00 +16°C° 0 mm 2 mps 609 mmHg 23%
    17:00 +16°C° 0 mm 2 mps 609 mmHg 22%
    18:00 +15°C° 0 mm 2 mps 609 mmHg 26%
    19:00 +14°C° 0 mm 2 mps 609 mmHg 30%
    20:00 +13°C° 0 mm 2 mps 609 mmHg 34%
    21:00 +12°C° 0 mm 1 mps 609 mmHg 36%
    22:00 +12°C° 0 mm 1 mps 609 mmHg 37%
    23:00 +11°C° 0 mm 1 mps 608 mmHg 39%
    Show more